Powrót do katalogu

OPS 5644

AktywnyMilitariaPO
NORAD 10033·PAYLOAD·🇺🇸 United States

Wystrzelony Jun 5, 1977 z Vandenberg Space Force Base

Loading…

Następne Przeloty (najbliższe 24 godziny)

TLE

ŚwieżeSource: Space-Track

Epoka: Sep 14, 2026, 09:50 UTC

1 10033U 77044A   26257.41028477  .00000139  00000-0  70150-4 0  9994
2 10033  99.1087 310.2011 0037146 331.0818  28.8305 14.31498976380926

Śledź OPS 5644 w czasie rzeczywistym z AllMySat

Download on the App Store